User: anonymous   Login
Location: *
(23.5860°S, 65.4036°W)
Time: 13:43:57
(UTC+00:00)
Language:

NOSS 3-2 (A) - Orbit

View from above orbital plane
View from above orbital plane
View from above satellite
View from above satellite

Ground track
Ground track

The orbit data is extracted from the following two-line orbital elements,

1 28095U 03054A   19281.08384060 0.00000000  00000-0  00000-0 0    09
2 28095  63.4218 318.8896 0382113 358.6299   1.3255 13.41378560    07
Epoch (UTC): 08 October 2019 02:00:43
Eccentricity: 0.0382113
inclination: 63.4218°
perigee height: 818 km
apogee height: 1390 km
right ascension of ascending node: 318.8896°
argument of perigee: 358.6299°
revolutions per day: 13.41378560
mean anomaly at epoch: 1.3255°
orbit number at epoch: 0

The dashed part of the orbit path shows where the satellite is in the earth's shadow,  

DLR